Time,TemperatureF,DewpointF,PressureIn,WindDirection,WindDirectionDegrees,WindSpeedMPH,WindSpeedGustMPH,Humidity,HourlyPrecipIn,Conditions,Clouds,dailyrainin,SoftwareType,DateUTC
2013-01-11 00:03:00,35.9,34.3,29.84,SE,145,0.0,0.0,94,-99.99,,,0.00,1-wire,2013-01-11 06:03:00,
2013-01-11 00:08:00,35.9,34.5,29.83,SE,134,0.0,3.0,94,-99.99,,,0.00,1-wire,2013-01-11 06:08:00,
2013-01-11 00:14:00,35.8,34.3,29.82,SE,134,1.0,3.0,94,-99.99,,,0.00,1-wire,2013-01-11 06:14:00,
2013-01-11 00:19:00,35.8,34.3,29.81,SE,134,1.0,3.0,94,-99.99,,,0.00,1-wire,2013-01-11 06:19:00,
2013-01-11 00:24:00,35.8,34.4,29.80,SE,128,1.0,5.0,94,-99.99,,,0.00,1-wire,2013-01-11 06:24:00,
2013-01-11 00:29:00,35.6,34.1,29.79,SE,128,0.0,3.0,94,-99.99,,,0.00,1-wire,2013-01-11 06:29:00,
2013-01-11 00:34:00,35.8,34.4,29.79,SE,128,1.0,3.0,95,-99.99,,,0.00,1-wire,2013-01-11 06:34:00,
2013-01-11 00:39:00,35.6,34.2,29.79,SE,127,1.0,3.0,94,-99.99,,,0.00,1-wire,2013-01-11 06:39:00,
2013-01-11 00:44:00,36.0,34.6,29.79,SE,127,1.0,3.0,95,-99.99,,,0.00,1-wire,2013-01-11 06:44:00,
2013-01-11 00:49:00,35.8,34.5,29.79,SE,127,3.0,6.0,95,-99.99,,,0.00,1-wire,2013-01-11 06:49:00,
2013-01-11 00:54:00,35.8,34.5,29.78,SE,134,4.0,6.0,95,-99.99,,,0.00,1-wire,2013-01-11 06:54:00,
2013-01-11 00:59:00,35.8,34.5,29.78,SE,134,2.0,6.0,95,-99.99,,,0.00,1-wire,2013-01-11 06:59:00,
2013-01-11 01:04:00,35.8,34.5,29.77,SE,134,3.0,6.0,95,-99.99,,,0.00,1-wire,2013-01-11 07:04:00,
2013-01-11 01:09:00,35.8,34.5,29.78,SE,139,4.0,6.0,95,-99.99,,,0.00,1-wire,2013-01-11 07:09:00,
2013-01-11 01:14:00,35.9,34.6,29.78,SE,139,3.0,8.0,95,-99.99,,,0.00,1-wire,2013-01-11 07:14:00,
2013-01-11 01:19:00,36.1,35.0,29.77,SE,139,1.0,3.0,95,-99.99,,,0.00,1-wire,2013-01-11 07:19:00,
2013-01-11 01:24:00,36.2,35.0,29.78,SE,142,2.0,3.0,95,-99.99,,,0.00,1-wire,2013-01-11 07:24:00,
2013-01-11 01:29:00,36.3,35.1,29.78,SE,142,4.0,9.0,95,-99.99,,,0.00,1-wire,2013-01-11 07:29:00,
2013-01-11 01:34:00,36.6,35.4,29.77,SE,142,3.0,6.0,95,-99.99,,,0.00,1-wire,2013-01-11 07:34:00,
2013-01-11 01:39:00,36.6,35.4,29.76,SE,144,2.0,6.0,95,-99.99,,,0.00,1-wire,2013-01-11 07:39:00,
2013-01-11 01:44:00,36.7,35.6,29.76,SE,144,2.0,6.0,96,-99.99,,,0.00,1-wire,2013-01-11 07:44:00,
2013-01-11 01:49:00,36.9,35.8,29.76,SE,144,0.0,3.0,96,-99.99,,,0.00,1-wire,2013-01-11 07:49:00,
2013-01-11 01:54:00,36.9,35.8,29.76,SSE,147,1.0,3.0,96,-99.99,,,0.00,1-wire,2013-01-11 07:54:00,
2013-01-11 01:59:00,36.9,35.7,29.75,SSE,147,1.0,3.0,95,-99.99,,,0.00,1-wire,2013-01-11 07:59:00,
2013-01-11 02:04:00,37.3,36.2,29.77,SSE,147,1.0,3.0,96,-99.99,,,0.00,1-wire,2013-01-11 08:04:00,
2013-01-11 02:09:00,37.5,36.3,29.77,ESE,118,0.0,0.0,96,-99.99,,,0.00,1-wire,2013-01-11 08:09:00,
2013-01-11 02:14:00,37.4,36.3,29.77,ESE,118,0.0,0.0,96,-99.99,,,0.00,1-wire,2013-01-11 08:14:00,
2013-01-11 02:19:00,37.3,36.1,29.75,ESE,118,0.0,3.0,95,-99.99,,,0.00,1-wire,2013-01-11 08:19:00,
2013-01-11 02:24:00,37.2,35.9,29.75,SE,142,0.0,0.0,95,-99.99,,,0.00,1-wire,2013-01-11 08:24:00,
2013-01-11 02:29:00,37.5,36.2,29.75,SE,142,0.0,0.0,95,-99.99,,,0.00,1-wire,2013-01-11 08:29:00,
2013-01-11 02:34:00,37.5,36.3,29.75,SE,142,0.0,0.0,95,-99.99,,,0.00,1-wire,2013-01-11 08:34:00,
2013-01-11 02:39:00,37.4,36.1,29.74,South,186,0.0,0.0,95,-99.99,,,0.00,1-wire,2013-01-11 08:39:00,
2013-01-11 02:44:00,36.8,35.5,29.74,South,186,0.0,0.0,95,-99.99,,,0.00,1-wire,2013-01-11 08:44:00,
2013-01-11 02:49:00,36.4,35.0,29.73,South,186,0.0,0.0,95,-99.99,,,0.00,1-wire,2013-01-11 08:49:00,
2013-01-11 02:54:00,36.1,34.5,29.73,SE,143,0.0,0.0,94,-99.99,,,0.00,1-wire,2013-01-11 08:54:00,
2013-01-11 02:59:00,36.1,34.5,29.72,SE,143,0.0,3.0,94,-99.99,,,0.00,1-wire,2013-01-11 08:59:00,
2013-01-11 03:04:00,36.2,34.8,29.71,SE,143,1.0,3.0,94,-99.99,,,0.00,1-wire,2013-01-11 09:04:00,
2013-01-11 03:09:00,36.7,35.3,29.70,SE,135,0.0,3.0,95,-99.99,,,0.00,1-wire,2013-01-11 09:09:00,
2013-01-11 03:14:00,37.1,35.8,29.71,SE,135,0.0,3.0,95,-99.99,,,0.00,1-wire,2013-01-11 09:14:00,
2013-01-11 03:20:00,37.1,35.8,29.70,SE,135,0.0,3.0,95,-99.99,,,0.00,1-wire,2013-01-11 09:20:00,
2013-01-11 03:25:00,36.9,35.7,29.70,East,91,0.0,0.0,95,-99.99,,,0.00,1-wire,2013-01-11 09:25:00,
2013-01-11 03:30:00,36.7,35.5,29.70,East,91,0.0,3.0,95,-99.99,,,0.00,1-wire,2013-01-11 09:30:00,
2013-01-11 03:35:00,36.9,35.7,29.69,East,91,0.0,0.0,95,-99.99,,,0.00,1-wire,2013-01-11 09:35:00,
2013-01-11 03:41:00,36.9,35.7,29.69,East,93,0.0,0.0,95,-99.99,,,0.00,1-wire,2013-01-11 09:41:00,
2013-01-11 03:46:00,36.6,35.4,29.69,East,93,0.0,0.0,95,-99.99,,,0.00,1-wire,2013-01-11 09:46:00,
2013-01-11 03:51:00,37.0,35.7,29.68,East,93,0.0,0.0,95,-99.99,,,0.00,1-wire,2013-01-11 09:51:00,
2013-01-11 03:57:00,37.2,36.0,29.67,East,93,0.0,0.0,95,-99.99,,,0.00,1-wire,2013-01-11 09:57:00,
2013-01-11 04:03:00,36.8,35.5,29.66,East,93,0.0,0.0,95,-99.99,,,0.00,1-wire,2013-01-11 10:03:00,
2013-01-11 04:08:00,36.6,35.4,29.67,NNE,30,0.0,0.0,95,-99.99,,,0.00,1-wire,2013-01-11 10:08:00,
2013-01-11 04:14:00,36.6,35.3,29.66,NNE,30,0.0,0.0,95,-99.99,,,0.00,1-wire,2013-01-11 10:14:00,
2013-01-11 04:19:00,36.5,35.3,29.66,NNE,30,0.0,0.0,95,-99.99,,,0.00,1-wire,2013-01-11 10:19:00,
2013-01-11 04:24:00,36.8,35.5,29.66,NNE,30,0.0,0.0,95,-99.99,,,0.00,1-wire,2013-01-11 10:24:00,
2013-01-11 04:30:00,36.6,35.2,29.66,NNE,30,0.0,0.0,95,-99.99,,,0.00,1-wire,2013-01-11 10:30:00,
2013-01-11 04:35:00,36.3,34.9,29.66,NNE,30,0.0,0.0,95,-99.99,,,0.00,1-wire,2013-01-11 10:35:00,
2013-01-11 04:40:00,36.2,34.8,29.66,NNE,30,0.0,0.0,95,-99.99,,,0.00,1-wire,2013-01-11 10:40:00,
2013-01-11 04:46:00,36.0,34.6,29.66,NNE,30,0.0,0.0,95,-99.99,,,0.00,1-wire,2013-01-11 10:46:00,
2013-01-11 04:52:00,36.0,34.8,29.67,NNE,29,0.0,0.0,95,-99.99,,,0.00,1-wire,2013-01-11 10:52:00,
2013-01-11 04:58:00,36.5,35.2,29.66,NNE,29,0.0,0.0,95,-99.99,,,0.00,1-wire,2013-01-11 10:58:00,
2013-01-11 05:03:00,35.9,34.6,29.67,NNE,29,0.0,0.0,95,-99.99,,,0.00,1-wire,2013-01-11 11:03:00,
2013-01-11 05:08:00,35.9,34.6,29.67,NNE,20,0.0,0.0,95,-99.99,,,0.00,1-wire,2013-01-11 11:08:00,
2013-01-11 05:13:00,35.7,34.4,29.67,NNE,20,0.0,0.0,95,-99.99,,,0.00,1-wire,2013-01-11 11:13:00,
2013-01-11 05:18:00,35.9,34.6,29.67,NNE,20,0.0,0.0,95,-99.99,,,0.00,1-wire,2013-01-11 11:18:00,
2013-01-11 05:24:00,36.2,34.8,29.67,NNE,26,0.0,0.0,95,-99.99,,,0.00,1-wire,2013-01-11 11:24:00,
2013-01-11 05:30:00,35.8,34.4,29.67,NNE,26,0.0,0.0,95,-99.99,,,0.00,1-wire,2013-01-11 11:30:00,
2013-01-11 05:36:00,35.8,34.5,29.67,NNE,30,0.0,0.0,95,-99.99,,,0.00,1-wire,2013-01-11 11:36:00,
2013-01-11 05:42:00,36.2,34.8,29.66,NNE,30,0.0,0.0,95,-99.99,,,0.01,1-wire,2013-01-11 11:42:00,
2013-01-11 05:47:00,36.4,34.9,29.66,NNE,30,0.0,0.0,95,-99.99,,,0.01,1-wire,2013-01-11 11:47:00,
2013-01-11 05:52:00,35.9,34.4,29.66,NNW,344,0.0,0.0,94,-99.99,,,0.01,1-wire,2013-01-11 11:52:00,
2013-01-11 05:57:00,35.8,34.4,29.66,NNW,344,0.0,0.0,94,-99.99,,,0.01,1-wire,2013-01-11 11:57:00,
2013-01-11 06:03:00,35.5,34.1,29.66,NNW,344,0.0,0.0,94,-99.99,,,0.01,1-wire,2013-01-11 12:03:00,
2013-01-11 06:09:00,36.1,34.7,29.66,NNW,343,0.0,0.0,95,-99.99,,,0.01,1-wire,2013-01-11 12:09:00,
2013-01-11 06:14:00,36.0,34.7,29.66,NNW,343,0.0,0.0,95,-99.99,,,0.01,1-wire,2013-01-11 12:14:00,
2013-01-11 06:19:00,36.5,35.1,29.67,NNW,343,0.0,0.0,95,-99.99,,,0.02,1-wire,2013-01-11 12:19:00,
2013-01-11 06:24:00,36.0,34.5,29.67,NNW,331,0.0,0.0,94,-99.99,,,0.02,1-wire,2013-01-11 12:24:00,
2013-01-11 06:29:00,36.1,34.6,29.66,NNW,331,0.0,0.0,94,-99.99,,,0.02,1-wire,2013-01-11 12:29:00,
2013-01-11 06:35:00,36.3,34.7,29.67,NNW,331,0.0,0.0,94,-99.99,,,0.02,1-wire,2013-01-11 12:35:00,
2013-01-11 06:40:00,35.9,34.3,29.66,NNW,332,0.0,0.0,94,-99.99,,,0.02,1-wire,2013-01-11 12:40:00,
2013-01-11 06:45:00,36.1,34.5,29.66,NNW,332,0.0,0.0,94,-99.99,,,0.02,1-wire,2013-01-11 12:45:00,
2013-01-11 06:50:00,36.2,34.7,29.67,NNW,332,0.0,0.0,94,-99.99,,,0.02,1-wire,2013-01-11 12:50:00,
2013-01-11 06:55:00,36.0,34.5,29.68,NNW,334,0.0,0.0,94,-99.99,,,0.02,1-wire,2013-01-11 12:55:00,
2013-01-11 07:00:00,35.9,34.5,29.69,NNW,334,0.0,0.0,94,-99.99,,,0.02,1-wire,2013-01-11 13:00:00,
2013-01-11 07:06:00,35.9,34.6,29.69,WNW,290,0.0,0.0,95,-99.99,,,0.02,1-wire,2013-01-11 13:06:00,
2013-01-11 07:11:00,36.0,34.5,29.69,WNW,290,0.0,0.0,94,-99.99,,,0.02,1-wire,2013-01-11 13:11:00,
2013-01-11 07:16:00,36.0,34.5,29.69,WNW,290,0.0,0.0,94,-99.99,,,0.02,1-wire,2013-01-11 13:16:00,
2013-01-11 07:21:00,35.8,34.3,29.67,WNW,283,0.0,0.0,94,-99.99,,,0.02,1-wire,2013-01-11 13:21:00,
2013-01-11 07:26:00,36.3,34.9,29.67,WNW,283,0.0,0.0,95,-99.99,,,0.02,1-wire,2013-01-11 13:26:00,
2013-01-11 07:31:00,36.1,34.7,29.68,WNW,283,0.0,0.0,95,-99.99,,,0.02,1-wire,2013-01-11 13:31:00,
2013-01-11 07:36:00,36.4,34.9,29.68,West,275,0.0,0.0,94,-99.99,,,0.02,1-wire,2013-01-11 13:36:00,
2013-01-11 07:41:00,36.4,34.9,29.67,West,275,0.0,0.0,94,-99.99,,,0.02,1-wire,2013-01-11 13:41:00,
2013-01-11 07:46:00,36.2,34.7,29.67,West,275,0.0,0.0,94,-99.99,,,0.02,1-wire,2013-01-11 13:46:00,
2013-01-11 07:51:00,36.6,35.3,29.68,West,261,0.0,0.0,95,-99.99,,,0.02,1-wire,2013-01-11 13:51:00,
2013-01-11 07:56:00,36.8,35.4,29.68,West,261,0.0,0.0,95,-99.99,,,0.02,1-wire,2013-01-11 13:56:00,
2013-01-11 08:01:00,36.7,35.3,29.67,West,261,0.0,0.0,95,-99.99,,,0.02,1-wire,2013-01-11 14:01:00,
2013-01-11 08:06:00,36.6,35.1,29.67,East,89,0.0,0.0,94,-99.99,,,0.02,1-wire,2013-01-11 14:06:00,
2013-01-11 08:11:00,36.3,34.9,29.68,East,89,0.0,0.0,94,-99.99,,,0.02,1-wire,2013-01-11 14:11:00,
2013-01-11 08:16:00,36.9,35.5,29.67,East,89,0.0,0.0,95,-99.99,,,0.02,1-wire,2013-01-11 14:16:00,
2013-01-11 08:21:00,37.2,35.8,29.66,East,86,0.0,0.0,95,-99.99,,,0.02,1-wire,2013-01-11 14:21:00,
2013-01-11 08:26:00,36.6,35.2,29.67,East,86,0.0,0.0,95,-99.99,,,0.02,1-wire,2013-01-11 14:26:00,
2013-01-11 08:31:00,37.2,35.9,29.67,East,86,0.0,0.0,95,-99.99,,,0.02,1-wire,2013-01-11 14:31:00,
2013-01-11 08:36:00,37.1,35.8,29.67,East,88,0.0,0.0,95,-99.99,,,0.02,1-wire,2013-01-11 14:36:00,
2013-01-11 08:41:00,37.5,36.2,29.67,East,88,0.0,0.0,95,-99.99,,,0.02,1-wire,2013-01-11 14:41:00,
2013-01-11 08:46:00,37.6,36.3,29.67,East,88,0.0,0.0,95,-99.99,,,0.02,1-wire,2013-01-11 14:46:00,
2013-01-11 08:51:00,38.1,36.8,29.66,East,90,0.0,0.0,95,-99.99,,,0.02,1-wire,2013-01-11 14:51:00,
2013-01-11 08:56:00,38.0,36.7,29.66,East,90,0.0,0.0,95,-99.99,,,0.02,1-wire,2013-01-11 14:56:00,
2013-01-11 09:01:00,38.4,37.2,29.67,East,90,0.0,3.0,95,-99.99,,,0.02,1-wire,2013-01-11 15:01:00,
2013-01-11 09:06:00,38.4,37.2,29.67,East,82,0.0,3.0,95,-99.99,,,0.02,1-wire,2013-01-11 15:06:00,
2013-01-11 09:11:00,38.6,37.3,29.67,East,82,0.0,0.0,95,-99.99,,,0.02,1-wire,2013-01-11 15:11:00,
2013-01-11 09:16:00,39.1,37.9,29.67,East,82,0.0,3.0,95,-99.99,,,0.02,1-wire,2013-01-11 15:16:00,
2013-01-11 09:21:00,39.7,38.6,29.66,SSW,200,2.0,6.0,96,-99.99,,,0.02,1-wire,2013-01-11 15:21:00,
2013-01-11 09:26:00,39.4,38.2,29.67,SSW,200,2.0,6.0,96,-99.99,,,0.02,1-wire,2013-01-11 15:26:00,
2013-01-11 09:31:00,39.1,37.9,29.67,SSW,200,1.0,3.0,95,-99.99,,,0.02,1-wire,2013-01-11 15:31:00,
2013-01-11 09:36:00,39.2,37.9,29.68,SW,223,1.0,3.0,95,-99.99,,,0.02,1-wire,2013-01-11 15:36:00,
2013-01-11 09:41:00,39.1,37.9,29.67,SW,223,2.0,8.0,95,-99.99,,,0.02,1-wire,2013-01-11 15:41:00,
2013-01-11 09:46:00,39.5,38.4,29.67,SW,223,1.0,3.0,96,-99.99,,,0.02,1-wire,2013-01-11 15:46:00,
2013-01-11 09:51:00,39.2,37.9,29.67,SW,216,2.0,3.0,95,-99.99,,,0.02,1-wire,2013-01-11 15:51:00,
2013-01-11 09:56:00,39.0,37.8,29.67,SW,216,3.0,6.0,95,-99.99,,,0.02,1-wire,2013-01-11 15:56:00,
2013-01-11 10:01:00,39.1,37.9,29.67,SW,216,1.0,3.0,95,-99.99,,,0.02,1-wire,2013-01-11 16:01:00,
2013-01-11 10:06:00,39.5,38.4,29.67,SSW,205,2.0,6.0,96,-99.99,,,0.02,1-wire,2013-01-11 16:06:00,
2013-01-11 10:11:00,39.4,38.2,29.69,SSW,205,3.0,9.0,95,-99.99,,,0.02,1-wire,2013-01-11 16:11:00,
2013-01-11 10:16:00,39.1,37.8,29.70,SSW,205,5.0,9.0,95,-99.99,,,0.02,1-wire,2013-01-11 16:16:00,
2013-01-11 10:22:00,39.2,38.0,29.69,WSW,241,2.0,6.0,95,-99.99,,,0.02,1-wire,2013-01-11 16:22:00,
2013-01-11 10:27:00,38.9,37.6,29.70,WSW,241,7.0,17.0,95,-99.99,,,0.02,1-wire,2013-01-11 16:27:00,
2013-01-11 10:32:00,39.0,37.7,29.70,WSW,241,1.0,3.0,95,-99.99,,,0.02,1-wire,2013-01-11 16:32:00,
2013-01-11 10:37:00,39.1,37.7,29.70,WSW,248,2.0,8.0,95,-99.99,,,0.02,1-wire,2013-01-11 16:37:00,
2013-01-11 10:43:00,39.1,37.8,29.70,WSW,248,4.0,6.0,95,-99.99,,,0.02,1-wire,2013-01-11 16:43:00,
2013-01-11 10:48:00,39.1,37.8,29.70,WSW,248,4.0,9.0,95,-99.99,,,0.02,1-wire,2013-01-11 16:48:00,
2013-01-11 10:53:00,38.9,37.6,29.69,WSW,238,3.0,6.0,95,-99.99,,,0.02,1-wire,2013-01-11 16:53:00,
2013-01-11 10:58:00,39.2,38.0,29.69,WSW,238,1.0,5.0,95,-99.99,,,0.02,1-wire,2013-01-11 16:58:00,
2013-01-11 11:04:00,39.2,38.0,29.69,WSW,238,2.0,6.0,95,-99.99,,,0.02,1-wire,2013-01-11 17:04:00,
2013-01-11 11:09:00,39.3,38.1,29.69,SW,229,2.0,6.0,95,-99.99,,,0.02,1-wire,2013-01-11 17:09:00,
2013-01-11 11:14:00,39.3,38.1,29.69,SW,229,4.0,9.0,95,-99.99,,,0.02,1-wire,2013-01-11 17:14:00,
2013-01-11 11:19:00,39.1,37.9,29.69,SW,229,2.0,3.0,96,-99.99,,,0.02,1-wire,2013-01-11 17:19:00,
2013-01-11 11:25:00,39.3,38.1,29.69,SSW,208,1.0,10.0,95,-99.99,,,0.02,1-wire,2013-01-11 17:25:00,
2013-01-11 11:31:00,39.4,38.2,29.69,SSW,208,6.0,13.0,96,-99.99,,,0.02,1-wire,2013-01-11 17:31:00,
2013-01-11 11:37:00,39.6,38.5,29.68,SSW,211,4.0,6.0,96,-99.99,,,0.02,1-wire,2013-01-11 17:37:00,
2013-01-11 11:42:00,39.4,38.2,29.67,SSW,211,2.0,6.0,96,-99.99,,,0.02,1-wire,2013-01-11 17:42:00,
2013-01-11 11:47:00,39.5,38.3,29.67,SSW,211,3.0,6.0,96,-99.99,,,0.02,1-wire,2013-01-11 17:47:00,
2013-01-11 11:53:00,39.8,38.7,29.68,SSW,207,1.0,3.0,96,-99.99,,,0.02,1-wire,2013-01-11 17:53:00,
2013-01-11 11:59:00,39.7,38.5,29.68,SSW,207,2.0,3.0,95,-99.99,,,0.02,1-wire,2013-01-11 17:59:00,
2013-01-11 12:04:00,40.0,38.9,29.67,SSW,207,2.0,6.0,96,-99.99,,,0.02,1-wire,2013-01-11 18:04:00,
2013-01-11 12:09:00,40.2,39.0,29.66,SSW,204,3.0,6.0,96,-99.99,,,0.02,1-wire,2013-01-11 18:09:00,
2013-01-11 12:14:00,40.1,38.8,29.66,SSW,204,2.0,6.0,95,-99.99,,,0.02,1-wire,2013-01-11 18:14:00,
2013-01-11 12:19:00,40.3,39.1,29.67,SSW,204,2.0,3.0,96,-99.99,,,0.02,1-wire,2013-01-11 18:19:00,
2013-01-11 12:24:00,39.9,38.7,29.67,SSW,201,3.0,6.0,95,-99.99,,,0.02,1-wire,2013-01-11 18:24:00,
2013-01-11 12:30:00,39.8,38.6,29.66,SSW,201,3.0,6.0,95,-99.99,,,0.02,1-wire,2013-01-11 18:30:00,
2013-01-11 12:35:00,39.8,38.6,29.66,SSW,201,1.0,3.0,95,-99.99,,,0.02,1-wire,2013-01-11 18:35:00,
2013-01-11 12:40:00,39.8,38.6,29.66,SSW,201,1.0,3.0,95,-99.99,,,0.02,1-wire,2013-01-11 18:40:00,
2013-01-11 12:45:00,39.7,38.5,29.66,SSW,201,3.0,8.0,95,-99.99,,,0.02,1-wire,2013-01-11 18:45:00,
2013-01-11 12:51:00,39.7,38.5,29.66,SSW,199,1.0,3.0,96,-99.99,,,0.02,1-wire,2013-01-11 18:51:00,
2013-01-11 12:56:00,39.7,38.5,29.66,SSW,199,1.0,3.0,96,-99.99,,,0.02,1-wire,2013-01-11 18:56:00,
2013-01-11 13:01:00,40.0,38.9,29.66,SSW,199,1.0,3.0,96,-99.99,,,0.02,1-wire,2013-01-11 19:01:00,
2013-01-11 13:06:00,39.9,38.8,29.66,SSW,194,1.0,3.0,96,-99.99,,,0.02,1-wire,2013-01-11 19:06:00,
2013-01-11 13:11:00,40.1,39.0,29.66,SSW,194,2.0,3.0,96,-99.99,,,0.02,1-wire,2013-01-11 19:11:00,
2013-01-11 13:16:00,40.1,39.1,29.66,SSW,194,1.0,3.0,96,-99.99,,,0.02,1-wire,2013-01-11 19:16:00,
2013-01-11 13:21:00,40.5,39.5,29.66,South,188,2.0,6.0,96,-99.99,,,0.02,1-wire,2013-01-11 19:21:00,
2013-01-11 13:26:00,40.5,39.4,29.66,South,188,1.0,3.0,96,-99.99,,,0.02,1-wire,2013-01-11 19:26:00,
2013-01-11 13:31:00,40.4,39.4,29.65,South,188,1.0,3.0,96,-99.99,,,0.02,1-wire,2013-01-11 19:31:00,
2013-01-11 13:36:00,40.4,39.4,29.66,South,191,1.0,3.0,96,-99.99,,,0.02,1-wire,2013-01-11 19:36:00,
2013-01-11 13:41:00,40.3,39.3,29.66,South,191,2.0,5.0,96,-99.99,,,0.02,1-wire,2013-01-11 19:41:00,
2013-01-11 13:46:00,40.4,39.4,29.66,South,191,1.0,3.0,96,-99.99,,,0.02,1-wire,2013-01-11 19:46:00,
2013-01-11 13:52:00,40.5,39.5,29.66,South,190,2.0,3.0,96,-99.99,,,0.02,1-wire,2013-01-11 19:52:00,
2013-01-11 13:57:00,40.3,39.2,29.67,South,190,1.0,3.0,96,-99.99,,,0.02,1-wire,2013-01-11 19:57:00,
2013-01-11 14:02:00,40.4,39.4,29.66,South,190,2.0,10.0,96,-99.99,,,0.02,1-wire,2013-01-11 20:02:00,
2013-01-11 14:07:00,40.5,39.4,29.66,South,185,3.0,6.0,96,-99.99,,,0.02,1-wire,2013-01-11 20:07:00,
2013-01-11 14:12:00,40.7,39.6,29.66,South,185,0.0,3.0,96,-99.99,,,0.02,1-wire,2013-01-11 20:12:00,
2013-01-11 14:17:00,40.8,39.7,29.65,South,185,2.0,3.0,96,-99.99,,,0.02,1-wire,2013-01-11 20:17:00,
2013-01-11 14:22:00,41.0,40.0,29.64,South,186,3.0,6.0,96,-99.99,,,0.02,1-wire,2013-01-11 20:22:00,
2013-01-11 14:27:00,41.1,40.1,29.64,South,186,1.0,3.0,96,-99.99,,,0.02,1-wire,2013-01-11 20:27:00,
2013-01-11 14:32:00,41.0,40.0,29.64,South,186,2.0,6.0,96,-99.99,,,0.02,1-wire,2013-01-11 20:32:00,
2013-01-11 14:37:00,41.4,40.4,29.64,South,183,1.0,3.0,96,-99.99,,,0.02,1-wire,2013-01-11 20:37:00,
2013-01-11 14:42:00,41.3,40.3,29.64,South,183,2.0,6.0,96,-99.99,,,0.02,1-wire,2013-01-11 20:42:00,
2013-01-11 14:47:00,41.5,40.5,29.64,South,183,2.0,3.0,96,-99.99,,,0.02,1-wire,2013-01-11 20:47:00,
2013-01-11 14:52:00,41.2,40.2,29.63,South,179,1.0,3.0,96,-99.99,,,0.02,1-wire,2013-01-11 20:52:00,
2013-01-11 14:57:00,41.5,40.6,29.64,South,179,3.0,9.0,96,-99.99,,,0.02,1-wire,2013-01-11 20:57:00,
2013-01-11 15:02:00,41.7,40.7,29.64,South,179,1.0,3.0,96,-99.99,,,0.02,1-wire,2013-01-11 21:02:00,
2013-01-11 15:07:00,41.6,40.7,29.64,South,177,3.0,6.0,96,-99.99,,,0.02,1-wire,2013-01-11 21:07:00,
2013-01-11 15:12:00,41.7,40.7,29.64,South,177,1.0,3.0,96,-99.99,,,0.02,1-wire,2013-01-11 21:12:00,
2013-01-11 15:17:00,41.8,40.9,29.63,South,177,1.0,6.0,96,-99.99,,,0.02,1-wire,2013-01-11 21:17:00,
2013-01-11 15:22:00,41.9,41.0,29.64,South,174,1.0,3.0,97,-99.99,,,0.02,1-wire,2013-01-11 21:22:00,
2013-01-11 15:27:00,41.9,41.0,29.63,South,174,1.0,3.0,97,-99.99,,,0.02,1-wire,2013-01-11 21:27:00,
2013-01-11 15:32:00,41.9,41.0,29.63,South,174,2.0,9.0,97,-99.99,,,0.02,1-wire,2013-01-11 21:32:00,
2013-01-11 15:37:00,42.1,41.2,29.63,South,174,3.0,6.0,97,-99.99,,,0.02,1-wire,2013-01-11 21:37:00,
2013-01-11 15:42:00,42.0,41.0,29.63,South,174,1.0,3.0,96,-99.99,,,0.02,1-wire,2013-01-11 21:42:00,
2013-01-11 15:47:00,42.3,41.5,29.63,South,174,2.0,9.0,97,-99.99,,,0.02,1-wire,2013-01-11 21:47:00,
2013-01-11 15:52:00,42.3,41.5,29.63,South,175,2.0,3.0,97,-99.99,,,0.02,1-wire,2013-01-11 21:52:00,
2013-01-11 15:57:00,42.3,41.5,29.63,South,175,2.0,6.0,97,-99.99,,,0.02,1-wire,2013-01-11 21:57:00,
2013-01-11 16:02:00,42.5,41.7,29.63,South,175,0.0,3.0,97,-99.99,,,0.02,1-wire,2013-01-11 22:02:00,
2013-01-11 16:07:00,42.6,41.8,29.63,South,178,2.0,6.0,97,-99.99,,,0.02,1-wire,2013-01-11 22:07:00,
2013-01-11 16:12:00,42.4,41.6,29.63,South,178,1.0,3.0,97,-99.99,,,0.02,1-wire,2013-01-11 22:12:00,
2013-01-11 16:18:00,42.8,42.0,29.63,South,178,3.0,6.0,97,-99.99,,,0.02,1-wire,2013-01-11 22:18:00,
2013-01-11 16:23:00,42.7,42.0,29.63,South,175,3.0,6.0,97,-99.99,,,0.02,1-wire,2013-01-11 22:23:00,
2013-01-11 16:28:00,42.8,42.0,29.62,South,175,4.0,9.0,97,-99.99,,,0.02,1-wire,2013-01-11 22:28:00,
2013-01-11 16:34:00,42.8,42.0,29.62,South,175,3.0,8.0,97,-99.99,,,0.02,1-wire,2013-01-11 22:34:00,
2013-01-11 16:40:00,43.2,42.5,29.62,South,171,5.0,13.0,97,-99.99,,,0.02,1-wire,2013-01-11 22:40:00,
2013-01-11 16:46:00,43.3,42.6,29.63,South,171,4.0,8.0,97,-99.99,,,0.02,1-wire,2013-01-11 22:46:00,
2013-01-11 16:51:00,43.4,42.7,29.63,South,176,3.0,6.0,97,-99.99,,,0.02,1-wire,2013-01-11 22:51:00,
2013-01-11 16:56:00,43.2,42.4,29.63,South,176,3.0,10.0,97,-99.99,,,0.02,1-wire,2013-01-11 22:56:00,
2013-01-11 17:01:00,43.3,42.6,29.63,South,176,1.0,3.0,97,-99.99,,,0.02,1-wire,2013-01-11 23:01:00,
2013-01-11 17:06:00,43.4,42.6,29.63,South,181,3.0,11.0,97,-99.99,,,0.02,1-wire,2013-01-11 23:06:00,
2013-01-11 17:12:00,43.4,42.7,29.64,South,181,2.0,6.0,97,-99.99,,,0.02,1-wire,2013-01-11 23:12:00,
2013-01-11 17:17:00,43.4,42.6,29.64,South,181,4.0,9.0,97,-99.99,,,0.02,1-wire,2013-01-11 23:17:00,
2013-01-11 17:22:00,43.5,42.8,29.63,South,178,2.0,6.0,97,-99.99,,,0.02,1-wire,2013-01-11 23:22:00,
2013-01-11 17:27:00,43.2,42.4,29.64,South,178,1.0,3.0,97,-99.99,,,0.02,1-wire,2013-01-11 23:27:00,
2013-01-11 17:32:00,43.5,42.8,29.64,South,178,6.0,11.0,97,-99.99,,,0.02,1-wire,2013-01-11 23:32:00,
2013-01-11 17:38:00,43.6,42.9,29.63,South,183,3.0,6.0,97,-99.99,,,0.02,1-wire,2013-01-11 23:38:00,
2013-01-11 17:44:00,43.7,43.0,29.63,South,183,3.0,6.0,97,-99.99,,,0.02,1-wire,2013-01-11 23:44:00,
2013-01-11 17:50:00,44.0,43.2,29.62,South,183,1.0,3.0,97,-99.99,,,0.02,1-wire,2013-01-11 23:50:00,
2013-01-11 17:55:00,44.0,43.3,29.62,South,179,2.0,6.0,97,-99.99,,,0.02,1-wire,2013-01-11 23:55:00,
2013-01-11 18:00:00,44.1,43.4,29.62,South,179,3.0,8.0,97,-99.99,,,0.02,1-wire,2013-01-12 00:00:00,
2013-01-11 18:05:00,44.2,43.4,29.62,South,179,4.0,9.0,97,-99.99,,,0.02,1-wire,2013-01-12 00:05:00,
2013-01-11 18:10:00,44.3,43.5,29.62,South,179,5.0,11.0,97,-99.99,,,0.02,1-wire,2013-01-12 00:10:00,
2013-01-11 18:16:00,44.6,43.8,29.62,South,179,8.0,16.0,97,-99.99,,,0.02,1-wire,2013-01-12 00:16:00,
2013-01-11 18:21:00,44.7,43.9,29.63,South,173,5.0,8.0,97,-99.99,,,0.02,1-wire,2013-01-12 00:21:00,
2013-01-11 18:26:00,44.6,43.8,29.63,South,173,4.0,9.0,97,-99.99,,,0.02,1-wire,2013-01-12 00:26:00,
2013-01-11 18:31:00,44.4,43.5,29.64,South,173,5.0,9.0,97,-99.99,,,0.02,1-wire,2013-01-12 00:31:00,
2013-01-11 18:36:00,44.2,43.3,29.62,South,176,3.0,6.0,97,-99.99,,,0.02,1-wire,2013-01-12 00:36:00,
2013-01-11 18:42:00,44.4,43.5,29.63,South,176,2.0,5.0,97,-99.99,,,0.02,1-wire,2013-01-12 00:42:00,
2013-01-11 18:47:00,44.7,43.9,29.62,South,176,1.0,3.0,97,-99.99,,,0.02,1-wire,2013-01-12 00:47:00,
2013-01-11 18:52:00,44.4,43.6,29.62,South,176,2.0,3.0,97,-99.99,,,0.02,1-wire,2013-01-12 00:52:00,
2013-01-11 18:58:00,44.7,43.8,29.62,South,176,3.0,9.0,97,-99.99,,,0.02,1-wire,2013-01-12 00:58:00,
2013-01-11 19:03:00,44.9,44.0,29.60,South,176,4.0,9.0,97,-99.99,,,0.02,1-wire,2013-01-12 01:03:00,
2013-01-11 19:08:00,44.9,44.1,29.60,South,178,2.0,6.0,97,-99.99,,,0.02,1-wire,2013-01-12 01:08:00,
2013-01-11 19:13:00,45.1,44.3,29.60,South,178,4.0,9.0,97,-99.99,,,0.02,1-wire,2013-01-12 01:13:00,
2013-01-11 19:18:00,45.2,44.4,29.60,South,178,4.0,9.0,97,-99.99,,,0.02,1-wire,2013-01-12 01:18:00,
2013-01-11 19:23:00,45.4,44.6,29.61,South,175,5.0,13.0,97,-99.99,,,0.02,1-wire,2013-01-12 01:23:00,
2013-01-11 19:28:00,45.1,44.3,29.61,South,175,3.0,9.0,97,-99.99,,,0.02,1-wire,2013-01-12 01:28:00,
2013-01-11 19:33:00,45.2,44.3,29.61,South,175,4.0,9.0,97,-99.99,,,0.02,1-wire,2013-01-12 01:33:00,
2013-01-11 19:38:00,45.1,44.3,29.61,South,177,4.0,9.0,97,-99.99,,,0.02,1-wire,2013-01-12 01:38:00,
2013-01-11 19:43:00,45.0,44.2,29.62,South,177,3.0,9.0,97,-99.99,,,0.02,1-wire,2013-01-12 01:43:00,
2013-01-11 19:48:00,44.8,44.0,29.62,South,177,3.0,9.0,97,-99.99,,,0.02,1-wire,2013-01-12 01:48:00,
2013-01-11 19:53:00,44.6,43.8,29.61,South,180,3.0,6.0,97,-99.99,,,0.02,1-wire,2013-01-12 01:53:00,
2013-01-11 19:59:00,45.2,44.4,29.60,South,180,2.0,6.0,97,-99.99,,,0.02,1-wire,2013-01-12 01:59:00,
2013-01-11 20:04:00,45.0,44.1,29.60,South,180,4.0,9.0,97,-99.99,,,0.02,1-wire,2013-01-12 02:04:00,
2013-01-11 20:09:00,45.1,44.2,29.60,South,184,2.0,6.0,97,-99.99,,,0.02,1-wire,2013-01-12 02:09:00,
2013-01-11 20:14:00,45.1,44.2,29.60,South,184,3.0,6.0,97,-99.99,,,0.02,1-wire,2013-01-12 02:14:00,
2013-01-11 20:19:00,44.8,43.9,29.60,South,184,2.0,8.0,97,-99.99,,,0.02,1-wire,2013-01-12 02:19:00,
2013-01-11 20:24:00,44.6,43.7,29.60,South,186,2.0,6.0,96,-99.99,,,0.02,1-wire,2013-01-12 02:24:00,
2013-01-11 20:29:00,44.9,44.0,29.62,South,186,2.0,6.0,97,-99.99,,,0.02,1-wire,2013-01-12 02:29:00,
2013-01-11 20:34:00,44.7,43.9,29.61,South,186,1.0,3.0,97,-99.99,,,0.02,1-wire,2013-01-12 02:34:00,
2013-01-11 20:39:00,44.7,43.7,29.61,South,182,3.0,11.0,97,-99.99,,,0.02,1-wire,2013-01-12 02:39:00,
2013-01-11 20:44:00,44.9,43.9,29.60,South,182,5.0,9.0,96,-99.99,,,0.02,1-wire,2013-01-12 02:44:00,
2013-01-11 20:49:00,45.1,44.1,29.60,South,182,3.0,6.0,96,-99.99,,,0.02,1-wire,2013-01-12 02:49:00,
2013-01-11 20:54:00,45.3,44.3,29.60,South,185,4.0,14.0,96,-99.99,,,0.02,1-wire,2013-01-12 02:54:00,
2013-01-11 20:59:00,45.2,44.1,29.60,South,185,4.0,6.0,96,-99.99,,,0.02,1-wire,2013-01-12 02:59:00,
2013-01-11 21:04:00,45.4,44.3,29.60,South,185,5.0,9.0,96,-99.99,,,0.02,1-wire,2013-01-12 03:04:00,
2013-01-11 21:09:00,45.3,44.1,29.59,South,187,5.0,11.0,95,-99.99,,,0.02,1-wire,2013-01-12 03:09:00,
2013-01-11 21:14:00,45.4,44.1,29.58,South,187,3.0,8.0,95,-99.99,,,0.02,1-wire,2013-01-12 03:14:00,
2013-01-11 21:19:00,45.5,44.3,29.58,South,187,5.0,11.0,95,-99.99,,,0.02,1-wire,2013-01-12 03:19:00,
2013-01-11 21:24:00,45.4,44.0,29.58,South,181,3.0,6.0,95,-99.99,,,0.02,1-wire,2013-01-12 03:24:00,
2013-01-11 21:29:00,45.4,43.9,29.58,South,181,5.0,11.0,95,-99.99,,,0.02,1-wire,2013-01-12 03:29:00,
2013-01-11 21:34:00,45.4,43.9,29.58,South,181,3.0,9.0,94,-99.99,,,0.02,1-wire,2013-01-12 03:34:00,
2013-01-11 21:39:00,45.7,44.1,29.58,South,185,3.0,11.0,94,-99.99,,,0.02,1-wire,2013-01-12 03:39:00,
2013-01-11 21:44:00,45.3,43.6,29.58,South,185,4.0,6.0,94,-99.99,,,0.02,1-wire,2013-01-12 03:44:00,
2013-01-11 21:49:00,45.5,43.8,29.57,South,185,4.0,9.0,94,-99.99,,,0.02,1-wire,2013-01-12 03:49:00,
2013-01-11 21:55:00,45.5,43.7,29.58,South,190,3.0,6.0,94,-99.99,,,0.02,1-wire,2013-01-12 03:55:00,
2013-01-11 22:01:00,45.7,43.9,29.58,South,190,5.0,11.0,94,-99.99,,,0.02,1-wire,2013-01-12 04:01:00,
2013-01-11 22:06:00,45.4,43.4,29.58,South,188,7.0,16.0,93,-99.99,,,0.02,1-wire,2013-01-12 04:06:00,
2013-01-11 22:11:00,45.8,43.8,29.58,South,188,5.0,11.0,93,-99.99,,,0.02,1-wire,2013-01-12 04:11:00,
2013-01-11 22:16:00,45.7,43.7,29.58,South,188,5.0,9.0,93,-99.99,,,0.02,1-wire,2013-01-12 04:16:00,
2013-01-11 22:21:00,45.8,43.7,29.58,South,191,2.0,3.0,92,-99.99,,,0.02,1-wire,2013-01-12 04:21:00,
2013-01-11 22:27:00,45.9,43.8,29.58,South,191,4.0,11.0,92,-99.99,,,0.02,1-wire,2013-01-12 04:27:00,
2013-01-11 22:32:00,45.7,43.5,29.59,South,191,4.0,11.0,92,-99.99,,,0.02,1-wire,2013-01-12 04:32:00,
2013-01-11 22:37:00,45.6,43.2,29.58,South,185,4.0,9.0,91,-99.99,,,0.02,1-wire,2013-01-12 04:37:00,
2013-01-11 22:42:00,46.1,43.7,29.58,South,185,4.0,11.0,91,-99.99,,,0.02,1-wire,2013-01-12 04:42:00,
2013-01-11 22:47:00,45.9,43.3,29.58,South,185,2.0,6.0,90,-99.99,,,0.02,1-wire,2013-01-12 04:47:00,
2013-01-11 22:53:00,45.8,43.2,29.58,South,189,3.0,6.0,90,-99.99,,,0.02,1-wire,2013-01-12 04:53:00,
2013-01-11 22:58:00,45.8,43.1,29.58,South,189,3.0,8.0,90,-99.99,,,0.02,1-wire,2013-01-12 04:58:00,
2013-01-11 23:01:00,45.8,43.2,29.58,South,189,5.0,9.0,90,-99.99,,,0.02,1-wire,2013-01-12 05:01:00,
2013-01-11 23:02:00,45.8,43.1,29.58,South,189,7.0,11.0,90,-99.99,,,0.02,1-wire,2013-01-12 05:02:00,
2013-01-11 23:03:00,45.9,43.4,29.58,South,189,5.0,11.0,91,-99.99,,,0.02,1-wire,2013-01-12 05:03:00,
2013-01-11 23:04:00,45.9,43.2,29.58,South,189,4.0,8.0,90,-99.99,,,0.02,1-wire,2013-01-12 05:04:00,
2013-01-11 23:09:00,46.0,43.2,29.58,SSW,195,6.0,9.0,90,-99.99,,,0.02,1-wire,2013-01-12 05:09:00,
2013-01-11 23:14:00,45.9,43.0,29.58,SSW,195,3.0,6.0,90,-99.99,,,0.02,1-wire,2013-01-12 05:14:00,
2013-01-11 23:19:00,45.8,42.9,29.58,SSW,195,4.0,9.0,89,-99.99,,,0.02,1-wire,2013-01-12 05:19:00,
2013-01-11 23:25:00,45.7,42.8,29.58,SSW,193,4.0,9.0,89,-99.99,,,0.02,1-wire,2013-01-12 05:25:00,
2013-01-11 23:30:00,45.6,42.7,29.58,SSW,193,5.0,9.0,90,-99.99,,,0.02,1-wire,2013-01-12 05:30:00,
2013-01-11 23:35:00,45.8,42.9,29.58,SSW,193,5.0,11.0,89,-99.99,,,0.02,1-wire,2013-01-12 05:35:00,
2013-01-11 23:40:00,45.7,42.6,29.58,South,187,5.0,9.0,89,-99.99,,,0.02,1-wire,2013-01-12 05:40:00,
2013-01-11 23:46:00,46.0,42.7,29.58,South,187,4.0,9.0,88,-99.99,,,0.02,1-wire,2013-01-12 05:46:00,
2013-01-11 23:52:00,46.2,43.0,29.58,SSW,195,8.0,14.0,89,-99.99,,,0.02,1-wire,2013-01-12 05:52:00,
2013-01-11 23:57:00,45.7,42.3,29.58,SSW,195,3.0,6.0,88,-99.99,,,0.02,1-wire,2013-01-12 05:57:00,